User: anonymous   Login
Location: Unspecified
(0.0000°N, 0.0000°E)
Time: 21:46:46
(UTC+00:00)
Language:

PAYLOAD D - Orbit

View from above orbital plane
View from above orbital plane
View from above satellite
View from above satellite

Ground track
Ground track

The orbit data is extracted from the following two-line orbital elements,

1 27058U 01058D   17117.77050848 +.00000012 +00000-0 +86615-5 0  9996
2 27058 082.5369 182.8422 0003332 021.9133 338.2103 12.62016153706307
Epoch (UTC): 27 April 2017 18:29:31
Eccentricity: 0.0003332
inclination: 82.5369°
perigee height: 1412 km
apogee height: 1417 km
right ascension of ascending node: 182.8422°
argument of perigee: 21.9133°
revolutions per day: 12.62016153
mean anomaly at epoch: 338.2103°
orbit number at epoch: 70630

The dashed part of the orbit path shows where the satellite is in the earth's shadow,  

DLR